Weather History for Big Bear City, CA

Change the Weather History Date:

Tuesday, May 21, 2013

  Actual Average (KBUO) Record (KBUO)
Temperature  
Mean Temperature 50 °F -  
Max Temperature 68 °F 77 °F 100 °F (2000)
Min Temperature 32 °F 51 °F 50 °F (1998)
Degree Days  
Heating Degree Days 15    
Moisture  
Dew Point 17 °F    
Average Humidity 32    
Maximum Humidity 57    
Minimum Humidity 15    
Precipitation  
Precipitation 0.00 in - - ()
Sea Level Pressure  
Sea Level Pressure 30.17 in    
Wind  
Wind Speed 5 mph (WSW)    
Max Wind Speed 17 mph    
Max Gust Speed 24 mph    
Visibility 10 miles    
Events      
Averages and records for this station are not official NWS values.
T = Trace of Precipitation, MM = Missing Value Source: NWS Daily Summary

Daily Weather History Graph

Daily Weather History Graph

Search for Another Location

Airport:

Trip Planner

Search our weather history database for the weather conditions in past years. The results will help you decide how hot, cold, wet, or windy it might be!

Date:

Astronomy

May. 21, 2013 Rise Set
Actual Time 5:41 AM PDT 7:47 PM PDT
Civil Twilight 5:13 AM PDT 8:15 PM PDT
Nautical Twilight 4:38 AM PDT 8:49 PM PDT
Astronomical Twilight 4:01 AM PDT 9:26 PM PDT
Moon 4:14 PM PDT (5/21) 3:01 AM PDT (5/21)
Length of Visible Light 15h 02m
Length of Day
14h 05m
Waxing Gibbous, 85% of the Moon is Illuminated
May 21
Waxing Gibbous
May 24
Full
May 31
Last Quarter
Jun 8
New
Jun 16
First Quarter

Hourly Weather History & Observations

Time (PDT) Temp. Windchill Dew Point Humidity Pressure Visibility Wind Dir Wind Speed Gust Speed Precip Events Conditions
12:15 AM 37.4 °F - 12.2 °F 36% 30.22 in 10.0 mi Calm Calm - N/A   Clear
12:35 AM 35.6 °F - 12.2 °F 38% 30.22 in 10.0 mi Calm Calm - N/A   Clear
12:55 AM 35.6 °F - 10.4 °F 35% 30.21 in 10.0 mi Calm Calm - N/A   Clear
1:15 AM 35.6 °F - 10.4 °F 35% 30.20 in 10.0 mi Calm Calm - N/A   Clear
1:35 AM 35.6 °F - 10.4 °F 35% 30.20 in 10.0 mi Calm Calm - N/A   Clear
1:55 AM 33.8 °F - 10.4 °F 38% 30.19 in 10.0 mi Calm Calm - N/A   Clear
2:15 AM 33.8 °F - 8.6 °F 35% 30.19 in 10.0 mi Calm Calm - N/A   Clear
2:35 AM 33.8 °F - 10.4 °F 38% 30.19 in 10.0 mi Calm Calm - N/A   Clear
2:55 AM 33.8 °F - 8.6 °F 35% 30.18 in 10.0 mi Calm Calm - N/A   Clear
3:15 AM 33.8 °F - 6.8 °F 32% 30.17 in 10.0 mi Calm Calm - N/A   Clear
3:35 AM 32.0 °F - 8.6 °F 38% 30.17 in 10.0 mi Calm Calm - N/A   Clear
3:55 AM 32.0 °F - 8.6 °F 38% 30.16 in 10.0 mi Calm Calm - N/A   Clear
4:15 AM 32.0 °F - 10.4 °F 41% 30.16 in 10.0 mi Calm Calm - N/A   Clear
4:35 AM 32.0 °F - 12.2 °F 44% 30.16 in 10.0 mi Calm Calm - N/A   Clear
4:55 AM 32.0 °F - 12.2 °F 44% 30.16 in 10.0 mi Calm Calm - N/A   Clear
5:15 AM 32.0 °F - 14.0 °F 48% 30.16 in 10.0 mi Calm Calm - N/A   Clear
5:35 AM 32.0 °F - 14.0 °F 48% 30.16 in 10.0 mi Calm Calm - N/A   Clear
5:55 AM 32.0 °F - 12.2 °F 44% 30.16 in 10.0 mi Calm Calm - N/A   Clear
6:15 AM 33.8 °F - 14.0 °F 44% 30.17 in 10.0 mi Calm Calm - N/A   Clear
6:35 AM 35.6 °F - 14.0 °F 41% 30.17 in 10.0 mi Calm Calm - N/A   Clear
6:55 AM 37.4 °F - 19.4 °F 48% 30.17 in 10.0 mi Calm Calm - N/A   Clear
7:15 AM 42.8 °F 40.1 °F 28.4 °F 57% 30.17 in 10.0 mi West 4.6 mph - N/A   Clear
7:35 AM 44.6 °F - 28.4 °F 53% 30.16 in 10.0 mi Calm Calm - N/A   Clear
7:55 AM 50.0 °F - 30.2 °F 47% 30.17 in 10.0 mi West 4.6 mph - N/A   Clear
8:15 AM 55.4 °F - 24.8 °F 31% 30.17 in 10.0 mi WSW 4.6 mph - N/A   Clear
8:35 AM 59.0 °F - 23.0 °F 25% 30.17 in 10.0 mi West 5.8 mph - N/A   Clear
8:55 AM 60.8 °F - 23.0 °F 23% 30.17 in 10.0 mi West 9.2 mph - N/A   Clear
9:15 AM 62.6 °F - 17.6 °F 18% 30.17 in 10.0 mi SW 12.7 mph 17.3 mph N/A   Clear
9:35 AM 62.6 °F - 19.4 °F 19% 30.17 in 10.0 mi WSW 8.1 mph - N/A   Clear
9:55 AM 64.4 °F - 19.4 °F 18% 30.17 in 10.0 mi West 10.4 mph - N/A   Clear
10:15 AM 64.4 °F - 19.4 °F 18% 30.17 in 10.0 mi WSW 8.1 mph - N/A   Clear
10:35 AM 64.4 °F - 19.4 °F 18% 30.17 in 10.0 mi SW 6.9 mph 16.1 mph N/A   Clear
10:55 AM 66.2 °F - 21.2 °F 18% 30.17 in 10.0 mi West 11.5 mph - N/A   Clear
11:15 AM 66.2 °F - 19.4 °F 17% 30.17 in 10.0 mi West 17.3 mph - N/A   Clear
11:35 AM 68.0 °F - 17.6 °F 15% 30.17 in 10.0 mi West 15.0 mph 19.6 mph N/A   Clear
12:15 PM 66.2 °F - 19.4 °F 17% 30.16 in 10.0 mi West 17.3 mph - N/A   Clear
12:35 PM 66.2 °F - 19.4 °F 17% 30.17 in 10.0 mi West 15.0 mph 19.6 mph N/A   Clear
12:55 PM 68.0 °F - 19.4 °F 16% 30.16 in 10.0 mi West 15.0 mph - N/A   Clear
1:15 PM 66.2 °F - 19.4 °F 17% 30.16 in 10.0 mi West 16.1 mph - N/A   Clear
1:35 PM 68.0 °F - 21.2 °F 17% 30.16 in 10.0 mi West 12.7 mph 24.2 mph N/A   Clear
1:55 PM 66.2 °F - 23.0 °F 19% 30.16 in 10.0 mi West 15.0 mph 20.7 mph N/A   Clear
2:15 PM - - - N/A% - - North - - N/A   Unknown
2:35 PM - - - N/A% - - North - - N/A   Unknown
2:55 PM - - - N/A% - - North - - N/A   Unknown
3:15 PM 66.2 °F - 35.6 °F 32% - 10.0 mi West 15.0 mph 18.4 mph N/A   Unknown
3:35 PM - - - N/A% - 10.0 mi West 10.4 mph 20.7 mph N/A   Clear
3:55 PM - - - N/A% - 10.0 mi SW 8.1 mph - N/A   Clear
4:15 PM - - - N/A% - 10.0 mi South 8.1 mph 16.1 mph N/A   Clear
4:35 PM - - - N/A% - 10.0 mi SW 10.4 mph 16.1 mph N/A   Clear
4:55 PM - - - N/A% - 10.0 mi SSW 6.9 mph - N/A   Clear
5:15 PM - - - N/A% - 10.0 mi West 11.5 mph 16.1 mph N/A   Clear
5:35 PM - - - N/A% - 10.0 mi SW 11.5 mph 18.4 mph N/A   Clear
5:55 PM - - - N/A% - 10.0 mi West 12.7 mph 17.3 mph N/A   Clear
6:15 PM - - - N/A% - 10.0 mi WSW 9.2 mph 18.4 mph N/A   Clear
6:35 PM - - - N/A% - 10.0 mi West 10.4 mph 19.6 mph N/A   Clear
6:55 PM - - - N/A% - 10.0 mi West 12.7 mph 16.1 mph N/A   Clear
7:15 PM - - - N/A% - 10.0 mi WSW 9.2 mph 21.9 mph N/A   Clear
7:35 PM - - - N/A% - 10.0 mi West 11.5 mph - N/A   Clear
7:55 PM - - - N/A% - 10.0 mi West 10.4 mph - N/A   Clear
8:15 PM - - - N/A% - 10.0 mi West 9.2 mph - N/A   Clear
8:35 PM - - - N/A% - 10.0 mi West 10.4 mph - N/A   Clear
8:55 PM - - - N/A% - 10.0 mi West 15.0 mph - N/A   Clear
9:15 PM - - - N/A% - 10.0 mi West 17.3 mph - N/A   Clear
9:35 PM - - - N/A% - 10.0 mi West 16.1 mph - N/A   Clear
9:55 PM - - - N/A% - 10.0 mi West 13.8 mph - N/A   Clear
10:15 PM - - - N/A% - 10.0 mi West 12.7 mph 16.1 mph N/A   Clear
10:35 PM - - - N/A% - 10.0 mi WSW 8.1 mph - N/A   Clear
10:55 PM - - - N/A% - 10.0 mi West 8.1 mph - N/A   Clear
11:15 PM - - - N/A% - 10.0 mi West 9.2 mph - N/A   Clear
11:35 PM - - - N/A% - 10.0 mi West 9.2 mph - N/A   Clear
11:55 PM - - - N/A% - 10.0 mi West 11.5 mph - N/A   Clear